Wind_Speed
17 17 17 13 13 11 11 11 9 9 10 11 12 11 10 8 9 9 10 8 7 6 7 8 9 9 9 10 11 11 8 9 9 10 11 12 11 12 11 13 13 10 12
21 18 18 14 13 11 11 11 9 10 11 11 11 10 8 8 9 8 9 7 7 7 7 9 8 8 9 9 9 9 9 9 10 10 10 9 10 9 10 11 5 12 11
20 18 16 13 15 12 10 11 11 10 10 11 10 9 10 8 9 10 9 7 7 8 7 8 8 8 8 9 9 9 9 9 9 9 10 8 8 8 9 9 8 11 11
20 18 15 17 15 13 10 10 11 10 10 10 10 9 9 10 11 9 9 9 9 9 8 8 8 9 9 8 8 9 7 8 7 9 6 6 8 8 8 9 9 10 11
18 17 14 18 15 14 11 10 11 10 11 10 9 9 10 10 11 10 10 9 10 10 8 8 7 8 8 8 8 7 7 6 5 4 4 4 6 8 9 9 9 9 10
17 16 16 16 15 13 11 10 9 10 10 11 9 9 11 10 10 10 10 9 9 8 8 7 7 7 7 6 7 6 5 6 6 4 3 5 1 8 9 8 9 10 9
17 15 15 14 12 12 11 10 9 9 10 11 11 10 10 10 10 11 10 10 8 8 7 6 6 6 6 5 4 2 2 6 6 5 5 6 4 5 9 9 10 10 10
16 15 13 13 11 11 10 10 9 9 9 11 10 10 9 10 11 10 10 9 9 7 6 5 5 4 4 4 2 1 4 4 8 8 5 5 6 7 8 10 10 10 10
15 14 13 11 9 9 9 9 9 10 9 11 9 9 9 9 9 8 8 7 6 5 4 4 4 4 4 4 3 1 3 3 5 8 6 4 4 6 8 10 12 12 12
15 13 12 11 10 10 8 9 10 9 9 9 7 8 8 9 7 7 7 6 5 3 3 3 4 4 4 4 2 1 4 4 5 4 6 6 4 7 9 10 12 12 13
14 14 13 11 10 9 9 9 8 10 9 9 7 7 8 7 7 6 6 6 4 3 3 4 4 3 3 3 4 5 5 5 5 7 8 9 10 11 8 9 8 10 13
17 15 13 11 11 11 10 9 10 9 9 9 8 7 6 6 6 5 6 7 5 4 3 4 3 1 1 4 5 7 7 8 7 6 10 13 11 13 12 10 12 12 14
17 15 13 12 11 11 10 10 10 9 9 9 8 7 6 6 5 5 4 4 4 3 4 1 3 3 4 4 5 7 8 8 8 8 11 13 16 13 15 11 12 15 15
16 15 14 13 12 11 10 10 10 9 9 8 8 8 7 7 6 5 4 3 3 3 2 2 2 4 6 7 8 9 9 9 9 8 10 12 14 17 16 15 18 18 16
15 16 16 15 14 12 11 10 10 10 9 9 8 8 7 5 5 4 3 2 2 2 2 3 4 6 6 8 7 10 9 10 11 11 10 13 14 16 17 16 19 21 18
14 16 16 16 15 13 12 11 10 10 9 8 8 8 8 6 5 3 3 3 3 4 3 5 6 6 7 7 7 9 10 9 10 11 10 11 16 17 17 19 20 20 22
15 15 16 16 16 15 13 12 11 10 10 9 8 8 8 8 7 5 5 6 5 5 6 6 7 7 7 8 8 8 9 10 10 11 11 11 12 17 22 20 24 24 24
16 16 16 16 17 17 15 14 12 11 10 9 9 8 9 9 8 7 6 6 5 6 6 7 7 7 9 10 9 8 9 8 9 11 10 11 13 14 16 20 24 27 27
17 17 17 18 18 17 15 14 12 10 9 8 9 9 9 10 10 10 8 6 5 5 5 6 6 7 8 9 10 9 9 8 8 7 7 8 10 12 14 17 22 30 27
17 17 17 18 18 18 15 13 12 11 10 10 10 10 11 11 12 12 9 8 5 4 5 4 6 7 8 8 11 10 9 6 4 4 7 6 5 9 11 13 15 22 29
18 19 19 20 20 18 17 16 15 14 12 11 11 10 11 12 12 12 9 7 5 5 6 5 6 6 9 8 11 10 4 2 1 4 5 5 5 6 9 11 13 16 19
21 22 22 22 22 22 18 17 15 13 13 12 11 10 10 10 11 11 8 6 5 6 6 6 6 7 7 6 7 13 4 2 9 10 7 5 7 8 9 12 13 14 14
24 25 25 25 24 23 21 17 15 11 11 11 13 13 12 11 11 12 10 8 8 6 5 3 4 5 6 4 2 4 4 4 8 6 8 7 9 11 11 13 9 11 12
24 24 26 26 26 24 23 20 19 16 15 14 14 13 15 12 11 11 10 9 9 7 6 6 5 5 5 7 9 2 5 6 3 4 13 9 9 7 10 12 8 5 9
23 23 24 26 25 25 24 25 21 19 16 14 12 11 15 14 12 12 11 10 10 8 8 8 7 7 7 9 8 11 9 8 3 4 7 10 7 8 9 9 5 1 5
23 22 23 25 25 25 25 24 25 21 20 15 15 13 16 16 13 12 13 11 9 9 8 7 6 7 9 10 8 7 8 5 8 10 9 9 8 9 9 6 4 2 3
Wind_Direction
157 155 151 144 149 133 130 131 135 137 129 128 140 151 155 152 142 137 136 138 125 125 125 131 120 115 108 105 111 122 124 120 114 114 116 121 121 121 128 125 117 124 121
150 151 147 146 153 140 128 127 132 132 134 132 139 151 157 147 143 141 139 139 132 134 128 127 133 121 109 113 114 121 122 118 123 121 120 118 126 136 134 134 69 131 129
146 148 144 150 153 146 132 130 134 129 134 138 141 146 149 150 131 122 128 132 134 130 136 127 121 117 117 121 122 118 123 126 132 129 144 128 136 136 141 137 134 134 138
145 146 146 148 158 154 147 135 134 135 127 129 137 145 142 139 128 124 132 124 128 131 127 122 120 118 116 121 129 121 120 121 131 145 180 127 139 158 152 148 144 145 146
145 147 145 147 160 152 154 140 137 135 137 138 147 135 131 127 131 125 131 127 117 125 125 124 120 118 122 127 131 130 132 146 151 162 160 161 162 169 166 162 157 154 150
146 146 154 144 154 152 151 146 144 136 135 135 136 130 130 124 118 119 123 123 125 128 120 123 124 124 131 143 138 140 156 162 136 164 172 195 232 165 176 174 173 177 167
148 146 152 152 154 156 154 146 138 138 135 133 130 138 132 129 126 113 129 129 125 122 122 126 127 133 133 136 131 149 216 220 211 206 180 179 192 205 185 188 188 183 178
149 149 151 155 159 161 152 149 147 147 145 140 134 134 127 124 120 121 119 125 131 129 128 142 153 144 139 144 159 240 310 263 234 233 207 196 220 212 201 199 199 197 193
152 151 152 156 157 154 154 152 152 153 149 143 134 139 135 124 125 125 134 136 128 137 148 155 159 163 171 184 205 298 300 304 214 230 212 177 258 220 223 209 205 203 203
157 154 151 154 159 156 156 154 157 154 154 150 150 146 142 138 138 134 133 143 138 144 165 188 179 169 184 198 211 304 306 296 285 210 202 185 170 236 244 227 219 214 209
163 159 154 151 156 153 149 160 154 161 154 157 133 151 131 150 142 143 157 144 148 140 156 145 158 170 191 199 194 236 265 268 272 242 225 200 221 240 242 243 240 235 221
167 167 159 162 159 159 160 166 166 163 160 162 160 153 155 156 158 147 165 165 178 181 189 178 188 221 106 221 223 234 242 253 254 242 235 236 242 233 235 217 224 227 233
171 170 173 173 170 166 165 167 169 165 165 165 167 166 158 164 164 177 179 195 201 218 220 197 252 247 251 255 254 259 261 264 255 251 236 241 239 229 212 210 214 230 237
176 178 181 180 177 174 170 175 170 171 170 168 171 172 164 164 160 166 166 172 182 187 223 250 264 268 265 261 267 266 267 264 273 268 264 249 235 233 228 220 217 218 230
181 185 186 183 182 179 176 178 175 176 174 174 173 177 172 173 170 174 193 217 228 206 230 269 280 281 279 285 276 275 274 264 265 267 264 261 247 238 236 240 221 223 222
179 180 182 185 185 182 182 181 180 179 179 176 182 186 192 192 196 195 206 230 248 255 266 267 271 286 300 301 301 293 288 287 273 269 271 261 260 242 236 230 225 228 225
181 176 179 184 184 184 184 185 184 183 177 180 185 196 203 207 215 231 237 250 258 272 275 277 276 288 301 311 298 295 290 283 275 268 267 263 258 255 239 238 222 228 231
184 178 182 185 185 184 182 183 185 187 185 188 193 202 215 224 233 245 247 255 264 276 280 287 299 311 321 316 306 311 307 296 284 269 263 267 253 247 249 246 229 236 230
191 185 185 188 188 184 182 183 188 190 199 203 206 211 216 229 237 242 257 263 265 272 281 283 304 310 313 324 322 317 305 287 280 263 279 288 262 252 246 250 242 239 236
191 192 190 191 191 189 187 193 198 204 211 217 218 220 224 230 238 244 256 262 273 277 287 289 304 317 313 312 324 315 310 300 278 265 300 296 274 257 251 247 250 243 240
195 194 195 195 196 193 197 199 205 209 213 219 221 222 228 235 239 244 251 261 256 271 271 294 297 304 325 346 311 342 321 326 73 302 309 304 314 294 286 274 258 249 244
198 201 198 200 198 199 202 207 214 219 221 219 218 221 231 240 238 236 240 254 242 260 261 280 299 310 317 351 335 315 1 141 359 322 335 305 333 325 304 283 272 268 252
206 203 203 203 201 202 205 206 211 218 226 217 225 232 234 240 240 234 235 236 242 247 268 274 270 291 317 330 327 344 341 29 315 292 303 323 332 331 329 325 307 255 256
207 208 207 204 202 204 203 207 211 216 221 222 226 229 229 230 240 231 227 229 239 252 263 264 264 281 287 317 321 266 300 305 340 303 335 321 319 311 349 345 344 274 250
204 204 204 203 204 204 204 208 211 222 224 223 223 228 218 224 236 230 227 230 237 244 253 260 264 268 276 279 302 317 323 324 256 307 327 330 331 338 354 358 11 313 238
202 203 198 197 202 203 204 208 212 217 220 218 218 220 219 220 226 230 228 228 233 241 244 249 254 261 258 271 293 308 307 320 322 316 326 339 327 344 340 352 359 8 212
Height
812 817 820 822 825 826 827 828 829 830 830 830 831 832 833 835 836 835 836 837 838 839 840 840 841 842 841 841 841 841 841 842 842 843 843 843 844 844 845 845 844 846 847
810 816 820 823 826 827 828 830 831 831 832 831 832 833 835 837 838 836 837 838 839 840 841 841 842 843 843 843 842 843 843 844 844 845 845 845 845 845 846 846 846 847 849
812 817 821 823 826 828 829 831 832 832 833 832 834 835 836 837 837 837 838 839 840 841 842 843 844 844 844 844 844 845 846 846 846 846 846 846 847 848 847 848 848 849 850
813 817 822 824 827 829 831 832 832 833 833 834 835 836 837 837 838 839 840 840 842 843 844 844 845 845 845 845 845 846 847 847 847 847 845 846 847 848 849 849 850 851 851
814 817 822 824 827 829 830 831 832 833 834 835 836 838 838 839 839 840 842 842 843 844 845 845 846 846 845 845 846 847 847 848 848 847 847 847 846 848 849 850 850 852 852
815 817 822 825 827 829 832 832 833 834 835 836 837 838 839 840 840 842 843 844 845 845 846 846 846 846 846 847 847 847 847 848 848 848 848 847 846 846 849 850 852 852 852
815 819 823 825 827 829 831 832 833 834 836 837 838 839 840 841 842 843 844 845 846 846 846 847 847 847 847 848 848 849 849 847 848 848 848 848 848 848 849 851 852 852 852
815 818 822 825 827 829 831 833 834 835 836 837 838 839 841 842 843 844 844 846 847 846 847 847 847 847 848 849 849 849 848 848 849 849 848 848 848 848 850 850 852 853 853
816 819 822 825 828 830 832 833 835 836 837 838 839 841 842 843 844 845 846 847 847 847 847 847 848 848 848 848 848 849 848 849 849 848 848 848 848 849 849 850 851 852 853
817 819 822 825 828 830 832 834 835 836 837 838 840 841 842 843 844 845 847 847 848 848 848 848 848 847 847 847 848 848 848 848 847 848 847 847 847 848 849 850 849 852 853
817 819 821 824 828 830 832 834 835 837 838 839 840 841 842 843 844 845 846 846 847 847 847 848 847 847 847 846 846 846 846 847 847 846 846 845 847 847 848 849 851 850 852
815 818 821 823 826 828 831 834 835 836 837 839 840 842 843 843 844 844 846 845 846 846 846 846 847 847 846 846 846 845 844 844 845 844 843 843 843 844 846 849 850 848 849
813 817 822 824 826 828 830 832 833 834 836 838 840 842 842 844 844 845 845 845 845 845 845 845 846 846 845 845 845 844 844 844 842 842 841 841 841 842 843 846 847 847 846
811 816 820 823 825 827 829 831 832 833 835 837 839 841 842 843 844 845 844 844 845 844 845 845 844 844 844 843 843 842 841 841 839 838 837 837 839 839 841 843 843 844 845
809 814 817 821 824 826 828 829 831 832 835 836 838 840 841 842 843 845 844 843 843 842 843 843 842 841 840 841 839 838 837 837 836 835 835 834 835 836 837 839 840 841 842
807 811 815 819 823 825 827 829 830 832 833 835 837 838 840 841 842 842 842 841 840 840 839 840 839 839 838 838 837 835 834 834 833 832 832 831 830 830 830 831 835 838 839
806 809 813 817 820 823 826 828 829 831 832 834 836 837 839 840 841 841 839 838 838 839 839 838 837 837 837 836 834 832 831 830 829 828 828 826 827 824 824 826 829 830 834
802 807 811 814 817 820 823 826 828 830 831 833 834 835 837 838 838 838 837 836 837 838 837 837 836 835 835 834 831 831 830 828 827 826 825 823 823 823 822 822 823 822 826
799 804 808 812 815 818 822 825 827 828 830 831 833 833 835 835 835 835 835 835 836 836 836 836 835 835 833 831 829 827 826 825 824 823 823 822 821 820 819 819 818 820 821
797 801 806 810 813 817 820 823 825 827 828 829 831 831 832 833 832 832 834 835 837 836 835 835 836 834 833 830 828 825 822 821 821 822 822 820 818 817 816 815 815 814 815
794 798 803 807 811 815 817 819 822 823 825 827 828 830 830 830 830 831 833 833 835 834 834 835 834 832 831 830 826 822 818 819 821 820 818 818 817 816 815 813 811 809 810
788 793 798 802 807 811 814 816 818 820 822 823 825 827 828 828 828 830 832 831 832 831 833 834 833 832 829 831 830 823 816 816 819 819 816 815 815 813 810 808 808 808 807
780 786 792 797 801 806 810 814 817 819 820 822 823 824 824 825 825 826 828 830 829 830 830 831 831 831 829 829 829 828 821 824 823 817 814 814 814 811 808 806 803 803 804
773 779 785 791 795 800 805 809 812 813 814 816 818 819 820 822 823 824 825 826 828 828 829 829 829 830 830 828 827 828 827 826 822 820 813 811 810 808 806 805 802 801 801
766 772 778 785 790 795 799 803 807 810 810 813 814 815 817 818 819 821 822 824 825 826 826 826 827 828 827 827 827 826 825 824 824 822 816 811 808 807 806 804 802 801 801
759 766 772 779 784 789 794 797 801 803 807 809 811 811 813 814 815 817 819 821 822 823 823 822 822 823 822 823 823 823 823 822 818 815 812 810 809 806 806 804 803 801 800